TimeMDT,TemperatureF,Dew PointF,Humidity,Sea Level PressureIn,VisibilityMPH,Wind Direction,Wind SpeedMPH,Gust SpeedMPH,PrecipitationIn,Events,Conditions,WindDirDegrees,DateUTC
12:53 AM,37.0,33.1,86,30.05,10.0,West,4.6,-,N/A,,Clear,270,2013-09-24 06:53:00
1:53 AM,35.1,32.0,89,30.05,10.0,West,5.8,-,N/A,,Clear,260,2013-09-24 07:53:00
2:53 AM,35.1,32.0,89,30.04,10.0,West,6.9,-,N/A,,Clear,270,2013-09-24 08:53:00
3:53 AM,34.0,30.9,89,30.03,10.0,West,5.8,-,N/A,,Clear,260,2013-09-24 09:53:00
4:53 AM,33.1,30.0,89,30.03,10.0,West,5.8,-,N/A,,Clear,270,2013-09-24 10:53:00
5:53 AM,30.9,28.9,92,30.03,10.0,West,5.8,-,N/A,,Clear,260,2013-09-24 11:53:00
6:53 AM,30.9,28.0,89,30.06,10.0,WSW,6.9,-,N/A,,Clear,250,2013-09-24 12:53:00
7:53 AM,32.0,28.9,88,30.13,10.0,WSW,4.6,-,N/A,,Clear,250,2013-09-24 13:53:00
8:53 AM,41.0,33.1,73,30.11,10.0,West,3.5,-,N/A,,Clear,260,2013-09-24 14:53:00
9:53 AM,55.0,33.1,43,30.06,10.0,ESE,6.9,-,N/A,,Clear,120,2013-09-24 15:53:00
10:53 AM,57.9,28.0,32,30.05,10.0,SE,11.5,-,N/A,,Clear,140,2013-09-24 16:53:00
11:53 AM,60.1,30.0,32,30.03,10.0,SE,13.8,-,N/A,,Clear,140,2013-09-24 17:53:00
12:53 PM,62.1,32.0,32,30.00,10.0,SE,9.2,-,N/A,,Clear,140,2013-09-24 18:53:00
1:53 PM,66.0,30.0,26,29.95,10.0,South,16.1,23.0,N/A,,Clear,170,2013-09-24 19:53:00
2:53 PM,68.0,26.1,21,29.92,10.0,SSE,12.7,-,N/A,,Clear,150,2013-09-24 20:53:00
3:53 PM,68.0,26.1,21,29.89,10.0,South,12.7,19.6,N/A,,Clear,170,2013-09-24 21:53:00
4:53 PM,68.0,27.0,21,29.87,10.0,SSE,12.7,24.2,N/A,,Clear,160,2013-09-24 22:53:00
5:53 PM,66.0,30.0,26,29.88,10.0,SSE,15.0,20.7,N/A,,Clear,160,2013-09-24 23:53:00
6:53 PM,62.1,30.0,30,29.88,10.0,South,12.7,-,N/A,,Clear,180,2013-09-25 00:53:00
7:53 PM,57.0,24.1,28,29.88,10.0,South,10.4,-,N/A,,Clear,170,2013-09-25 01:53:00
8:53 PM,53.1,27.0,37,29.87,10.0,South,5.8,-,N/A,,Clear,170,2013-09-25 02:53:00
9:53 PM,48.0,30.0,50,29.82,10.0,South,3.5,-,N/A,,Clear,180,2013-09-25 03:53:00
10:53 PM,39.0,34.0,82,29.85,10.0,SW,4.6,-,N/A,,Clear,230,2013-09-25 04:53:00
11:53 PM,46.9,30.0,52,29.77,10.0,South,10.4,-,N/A,,Clear,180,2013-09-25 05:53:00